This demonstration page uses our WeatherBlox Daily Observations layout. Learn more.

Left ArrowRight Arrow

41.86663, -103.66717

Hourly Observations for October 2, 2018

Temp ( °F °C ) Dew Point ( °F °C ) Humidity (%) Winds ( mph kmh ) Pressure ( in mb ) Visibility ( mi km ) Precip ( " mm )
12:53 am 00:53 Clear 51 10.6 49 9.4 92 92 E 9 15 29.93 1014 10 16 0.00 0.00
1:53 am 01:53 Clear 49 9.4 48 8.9 97 97 E 8 13 29.92 1013 10 16 0.00 0.00
2:53 am 02:53 Clear 48 8.9 48 8.9 100 100 E 6 9 29.91 1013 10 16 0.00 0.00
3:53 am 03:53 Clear 48 8.9 48 8.9 100 100 E 8 13 29.91 1013 10 16 0.00 0.00
4:53 am 04:53 Clear 46 7.8 46 7.8 100 100 ESE 6 9 29.91 1013 10 16 0.00 0.00
5:53 am 05:53 Clear 46 7.8 46 7.8 100 100 ESE 6 9 29.91 1013 10 16 0.00 0.00
6:53 am 06:53 Sunny 45 7.2 45 7.2 100 100 SSE 3 6 29.93 1013 10 16 0.00 0.00
7:53 am 07:53 Sunny 46 7.8 46 7.8 100 100 SSW 3 6 29.94 1014 7 11 0.00 0.00
8:53 am 08:53 Sunny 53 11.7 50 10 89 89 Calm 29.92 1013 10 16 0.00 0.00
9:53 am 09:53 Sunny 57 13.9 51 10.6 81 81 SE 5 7 29.91 1013 10 16 0.00 0.00
10:53 am 10:53 Sunny 65 18.3 53 11.7 66 66 Calm 29.88 1012 9 14 0.00 0.00
11:53 am 11:53 Sunny 78 25.6 52 11.1 40 40 Calm 29.83 1010 10 16 0.00 0.00
12:53 pm 12:53 Sunny 82 27.8 50 10 33 33 VRB 5 7 29.79 1009 10 16 0.00 0.00
1:53 pm 13:53 Sunny 84 28.9 49 9.4 30 30 N 3 6 29.75 1008 10 16 0.00 0.00
2:53 pm 14:53 Sunny 84 28.9 48 8.9 29 29 VRB 5 7 29.72 1007 10 16 0.00 0.00
3:53 pm 15:53 Sunny 83 28.3 49 9.4 31 31 NE 5 7 29.71 1006 10 16 0.00 0.00
4:53 pm 16:53 Sunny 81 27.2 50 10 34 34 ENE 7 11 29.70 1006 10 16 0.00 0.00
5:53 pm 17:53 Sunny 82 27.8 50 10 33 33 E 7 11 29.69 1005 10 16 0.00 0.00
6:53 pm 18:53 Clear 74 23.3 47 8.3 38 38 SSE 7 11 29.70 1006 10 16 0.00 0.00
7:53 pm 19:53 Clear 65 18.3 46 7.8 51 51 ESE 6 9 29.71 1006 10 16 0.00 0.00
8:53 pm 20:53 Clear 63 17.2 47 8.3 56 56 ESE 6 9 29.70 1006 10 16 0.00 0.00
9:53 pm 21:53 Clear 60 15.6 47 8.3 62 62 E 5 7 29.68 1005 10 16 0.00 0.00
10:53 pm 22:53 Clear 60 15.6 49 9.4 67 67 E 8 13 29.65 1004 10 16 0.00 0.00
11:53 pm 23:53 Clear 57 13.9 49 9.4 74 74 E 6 9 29.61 1003 10 16 0.00 0.00

Powered by AerisWeather